Location: Aressy
(43.2833°N, 0.3167°W)
Time: 20:39:41
(UTC+00:00)

Cosmos 2297 - Pass Details

Date: 28 January 2021
Orbit: 834 x 860 km, 71.0° (Epoch: 02 March)

Event Time Altitude Azimuth Distance (km) Brightness Sun altitude
Rises 18:43:43 0° 174° (S) 3,384 6.9 -17.5°
Reaches altitude 10° 18:46:23 10° 164° (SSE) 2,459 6.0 -18.0°
Maximum altitude 18:51:17 32° 104° (ESE) 1,435 4.4 -18.8°
Enters shadow 18:51:23 32° 102° (ESE) 1,435 4.4 -18.9°
